logo
Search for airport 
image banner adimage banner adimage banner ad
image banner ad

EDCT - Taucha

Located in Taucha, Germany

ICAO - EDCT, IATA -

Data provided by Airmate  

General information

Coordinates: N51°23'41" E12°32'13"
Elevation is 492 feet MSL.
Magnetic variation is 4.0000° East
Rated:
View ratings:
[VIEW]
View others Airports in Saxony

Operational data

Special qualification required
Current time UTC:
Current local time:
Weather at : EDDP - Leipzig/Halle ( 21 km )
METAR: EDDP 251550Z AUTO VRB03KT CAVOK 25/09 Q1013 NOSIG
TAF: TAF COR EDDP 251100Z 2512/2612 27005KT 9999 SCT040 BECMG 2516/2518 VRB03KT BECMG 2606/2609 22005KT
View NOTAMs / SUP AIP / TFR affecting this airport [VIEW]
Communications frequencies: [VIEW]

Runways:

RWY identifierQFULength (ft)Width (ft)SurfaceLDA (ft)
0770°196998GRASS1969
25250°196998GRASS1969

Airport contact information

Address: Taucha Germany

Satellite view of EDCT